TimeMST,TemperatureF,Dew PointF,Humidity,Sea Level PressureIn,VisibilityMPH,Wind Direction,Wind SpeedMPH,Gust SpeedMPH,PrecipitationIn,Events,Conditions,WindDirDegrees,DateUTC
12:56 AM,34.0,30.9,89,29.86,9.0,SE,8.1,-,N/A,,Clear,140,2013-03-03 07:56:00
2:56 AM,34.0,30.9,89,29.79,10.0,SSE,10.4,-,N/A,,Clear,160,2013-03-03 09:56:00
3:56 AM,34.0,30.9,89,29.76,10.0,South,11.5,-,N/A,,Scattered Clouds,170,2013-03-03 10:56:00
4:56 AM,34.0,30.9,89,29.74,10.0,SE,6.9,-,N/A,,Mostly Cloudy,140,2013-03-03 11:56:00
5:56 AM,34.0,30.9,89,29.73,10.0,ESE,5.8,-,N/A,,Overcast,120,2013-03-03 12:56:00
6:56 AM,34.0,30.9,89,29.72,10.0,SSE,8.1,-,N/A,,Overcast,160,2013-03-03 13:56:00
7:56 AM,35.1,30.9,85,29.71,10.0,SSE,5.8,-,N/A,,Overcast,160,2013-03-03 14:56:00
8:56 AM,39.0,33.1,79,29.69,10.0,SSE,3.5,-,N/A,,Scattered Clouds,160,2013-03-03 15:56:00
9:56 AM,42.1,34.0,73,29.67,10.0,South,3.5,-,N/A,,Overcast,170,2013-03-03 16:56:00
10:56 AM,46.9,34.0,61,29.64,10.0,Calm,Calm,-,N/A,,Overcast,0,2013-03-03 17:56:00
11:56 AM,48.9,35.1,59,29.63,10.0,Calm,Calm,-,N/A,,Overcast,0,2013-03-03 18:56:00
12:56 PM,48.0,37.0,66,29.61,10.0,Calm,Calm,-,0.00,Rain,Light Rain,0,2013-03-03 19:56:00
1:56 PM,45.0,39.9,82,29.60,10.0,ENE,3.5,-,0.00,Rain,Light Rain,70,2013-03-03 20:56:00
2:56 PM,43.0,41.0,93,29.59,5.0,ESE,5.8,-,0.03,Rain,Light Rain,110,2013-03-03 21:56:00
3:56 PM,44.1,42.1,93,29.58,8.0,SSE,6.9,-,0.02,Rain,Light Rain,150,2013-03-03 22:56:00
4:56 PM,43.0,41.0,93,29.56,10.0,SSE,8.1,-,0.01,,Overcast,160,2013-03-03 23:56:00
5:56 PM,41.0,39.9,96,29.56,10.0,South,10.4,-,0.00,Rain,Light Rain,170,2013-03-04 00:56:00
6:56 PM,41.0,39.0,93,29.55,10.0,SSE,11.5,-,0.00,Rain,Light Rain,160,2013-03-04 01:56:00
7:56 PM,42.1,39.9,92,29.53,6.0,SSE,12.7,-,0.01,Rain,Light Rain,160,2013-03-04 02:56:00
8:56 PM,37.9,36.0,93,29.57,10.0,West,19.6,28.8,0.06,Rain,Light Rain,260,2013-03-04 03:56:00
9:02 PM,35.6,33.8,93,29.54,8.0,West,27.6,35.7,0.01,Rain,Rain,270,2013-03-04 04:02:00
9:14 PM,33.8,32.0,93,29.55,5.0,West,23.0,31.1,0.03,Snow,Light Snow,270,2013-03-04 04:14:00
9:24 PM,33.8,32.0,93,29.56,1.8,West,26.5,36.8,0.06,Snow,Light Snow,260,2013-03-04 04:24:00
9:42 PM,33.8,32.0,93,29.57,0.5,West,25.3,35.7,0.07,Fog-Snow,Snow,270,2013-03-04 04:42:00
9:56 PM,33.1,32.0,96,29.62,0.8,West,23.0,33.4,0.08,Snow,Light Snow,280,2013-03-04 04:56:00
10:13 PM,33.8,32.0,93,29.57,1.0,West,20.7,28.8,0.00,Snow,Light Snow,280,2013-03-04 05:13:00
10:45 PM,33.8,32.0,93,29.57,1.8,West,19.6,-,0.00,Snow,Light Snow,280,2013-03-04 05:45:00
10:52 PM,33.8,32.0,93,29.57,2.0,West,19.6,-,0.00,Snow,Light Snow,280,2013-03-04 05:52:00
10:56 PM,33.1,32.0,96,29.61,1.8,West,20.7,26.5,0.00,Snow,Light Snow,280,2013-03-04 05:56:00
11:21 PM,33.8,32.0,93,29.57,3.0,West,19.6,-,0.01,Snow,Light Snow,280,2013-03-04 06:21:00
11:30 PM,33.8,30.2,87,29.57,9.0,West,20.7,-,0.01,Snow,Light Snow,280,2013-03-04 06:30:00
11:42 PM,33.8,30.2,87,29.57,9.0,West,19.6,28.8,0.01,,Overcast,280,2013-03-04 06:42:00
11:56 PM,33.1,30.9,92,29.60,10.0,West,21.9,28.8,0.01,,Overcast,280,2013-03-04 06:56:00